User: anonymous   Login
Location: Waning Moon II Observatory
(30.3730°N, 89.7620°W)
Time: 01:49:31
(UTC-06:00)
Language:

Meteor 1-21 - Orbit

View from above orbital plane
View from above orbital plane
View from above satellite
View from above satellite

Ground track
Ground track

The orbit data is extracted from the following two-line orbital elements,

1  7714U 75023A   16341.63726794 +.00000134 +00000-0 +71033-4 0  9991
2  7714 081.2091 019.1521 0033353 082.3861 278.1095 14.07937354457849
Epoch (UTC): 06 December 2016 15:17:39
Eccentricity: 0.0033353
inclination: 81.2091°
perigee height: 842 km
apogee height: 890 km
right ascension of ascending node: 19.1521°
argument of perigee: 82.3861°
revolutions per day: 14.07937354
mean anomaly at epoch: 278.1095°
orbit number at epoch: 45784

The dashed part of the orbit path shows where the satellite is in the earth's shadow,  

DLR